Weather in Angarsky

Russia / Krasnoyarsk Krai     58°26′17″N   97°08′38″E
temp.,
°C
wind,
m/s
gust,
m/s
humid.,
%
clouds,
%
prec.,
mm/h
press.,
hPa
HPBL,
m
2 december, thu
thu201:00−13s1196100 0.0 102430
04:00−11se2396100 0.3 102186
07:00−8ssw3895100 0.8 1018447
10:00−7ssw2696100 0.4 1017316
13:00−4wsw31095100 1.0 1016690
16:00−4wsw31096100 0.6 1017652
19:00−4wsw3994100 1.1 1016566
22:00−6sw2697100 0.3 1016222
3 december, fri
fri301:00−3sw41396100 1.2 1014613
04:00−4sw41284100 0.1 1012537
07:00−3sw41480100 0.1 1010552
10:00−2sw51575100 0.0 1009591
13:000sw51670100 0.0 1007704
16:00+1sw61666100 0.0 1005780
19:00+2sw61663100 0.0 1003837
22:00+1sw61485100 0.0 10021045
4 december, sat
sat401:00−1wsw41297100 0.9 1003923
04:000wsw41190100 0.7 1003736
07:00−1wsw31093100 0.8 1003751
10:00−1wsw51187100 0.4 10051065
13:00−2wsw71482100 0.7 10081251
16:00−4wsw61481100 0.3 10101224
19:00−5wsw41193100 0.4 10111080
22:00−5w61284100 0.6 10131154
5 december, sun
sun501:00−7wsw61482100 0.6 10161197
04:00−8w7167798 0.1 10191454
07:00−9w51289100 0.4 10211438
10:00−10w51380100 0.1 10231170
13:00−9wsw51187100 0.2 10231245
16:00−9wsw41188100 0.1 1023943
19:00−9sw31095100 0.6 1022773
22:00−8ssw3995100 1.0 1019594
6 december, mon
mon601:00−6sw31096100 2.4 1015686
04:00−5wsw21096100 2.1 1014824
07:00−5wsw2996100 2.9 1014631
10:00−5ssw1497100 0.3 1015189
13:00−4sw2696100 0.5 1015444
16:00−5e1198100 0.6 101417
19:00−6ne1197100 1.1 101468
22:00−4ssw1597100 0.3 1012183